Hourly Data Report for May 03, 2015

All times are specified in Local Standard Time (LST). Add 1 hour to adjust for Daylight Saving Time where and when it is observed.

Metadata including Station Name, Province, Latitude, Longitude, Elevation, Climate ID, WMO ID, TC ID
GRANBY
QUEBEC
Latitude: 45°22'22.000" N Longitude: 72°46'26.000" W Elevation: 86.00 m
Climate ID: 7022802 WMO ID: TC ID: MGB
Hourly Data Report for May 3, 2015
Temp Definition
°C

Dew Point Temp Definition
°C

Rel Hum Definition
%

Wind Dir Definition
10's deg
Wind Spd Definition
km/h

Visibility Definition
km

Stn Press Definition
kPa

Hmdx Definition

Wind Chill Definition

Weather Definition

00:00 7.4 2.5 71 0 1 100.27 LegendNANA
01:00 7.8 3.1 72 23 2 100.28 LegendNANA
02:00 7.7 3.6 75 36 1 100.28 LegendNANA
03:00 6.9 3.3 78   0 100.31 LegendNANA
04:00 7.5 3.6 77 0 1 100.34 LegendNANA
05:00 7.9 4.0 77   0 100.37 LegendNANA
06:00 9.2 5.4 77 20 4 100.45 LegendNANA
07:00 LegendMM 5.0 50 21 6 100.50 LegendNANA
08:00 17.7 5.7 45 23 9 100.51 LegendNANA
09:00 18.8 4.5 39 23 12 100.50 LegendNANA
10:00 19.9 4.6 37 24 14 100.52 LegendNANA
11:00 21.3 6.0 37 24 12 100.53 LegendNANA
12:00 22.1 5.3 33 25 12 100.50 LegendNANA
13:00 23.2 5.9 33 27 11 100.48 LegendNANA
14:00 24.5 6.2 31 28 9 100.45 LegendNANA
15:00 23.4 3.3 27 28 11 100.42 LegendNANA
16:00 24.7 3.8 26 27 7 100.40 LegendNANA
17:00 24.0 3.7 27 27 12 100.44 LegendNANA
18:00 22.8 3.5 28 26 7 100.46 LegendNANA
19:00 19.5 6.0 41 21 3 100.49 LegendNANA
20:00                    
21:00                    
22:00                    
23:00                    

Notes on Data Quality.

Legend
  • E = Estimated
  • M = Missing
  • NA = Not Available
  • ‡ = Partner data that is not subject to review by the National Climate Archives